Location: *
(49.7115°N, 15.0136°E)
Time: 15:26:52
(UTC+00:00)

Cosmos 2263 Rocket - Pass Details

Date: 27 February 2020
Orbit: 822 x 850 km, 71.0° (Epoch: 27 March)

Event Time Altitude Azimuth Distance (km) Brightness Sun altitude
Rises 18:52:40 0° 333° (NNW) 3,415 5.9 -22.4°
Reaches altitude 10° 18:55:56 10° 352° (N) 2,481 4.9 -22.9°
Maximum altitude 18:59:49 18° 35° (NE) 1,956 3.9 -23.5°
Enters shadow 18:59:52 18° 36° (NE) 1,956 3.9 -23.5°
